Stations météo

Publicité
Chambery/Aix-Les-Bains, France (7491): Température de l'air & dewpoint: 15.10.2017 19:00:00 - 21.10.2017 19:00:00 (CEST)Chambery/Aix-Les-Bains, France (7491): Température de l'air 5cm: 15.10.2017 19:00:00 - 21.10.2017 19:00:00 (CEST)Chambery/Aix-Les-Bains, France (7491): Température de l'air -20cm & Température de l'air -100cm: 15.10.2017 19:00:00 - 21.10.2017 19:00:00 (CEST)Chambery/Aix-Les-Bains, France (7491): Vitesse du vent & gusts: 15.10.2017 19:00:00 - 21.10.2017 19:00:00 (CEST)Chambery/Aix-Les-Bains, France (7491): Direction du vent: 15.10.2017 19:00:00 - 21.10.2017 19:00:00 (CEST)Chambery/Aix-Les-Bains, France (7491): reduced air pressure: 15.10.2017 19:00:00 - 21.10.2017 19:00:00 (CEST)Chambery/Aix-Les-Bains, France (7491): visibility: 15.10.2017 19:00:00 - 21.10.2017 19:00:00 (CEST)Chambery/Aix-Les-Bains, France (7491): Ensoleillement: 15.10.2017 19:00:00 - 21.10.2017 19:00:00 (CEST)Chambery/Aix-Les-Bains, France (7491): Quantités de précipitations: 15.10.2017 19:00:00 - 21.10.2017 19:00:00 (CEST)
Date & Time tt [°C] td [°C] tt 5cm [°C] tt -20cm [°C] tt -100cm [°C] ff [km/h] ff [knt] fx [km/h] fx [knt] dd ppp [hPa] vv [km] sd [min] rr [mm]
21.10.2017 19:00:00 17,7 9,8 17,1 13,6 14,9 36 20 54 29 NE 1017,9 20 0 0,0
21.10.2017 18:00:00 20,5 11,9 16,8 13,6 15,0 8 4 23 12 SW 1016,3 10 0 0,0
21.10.2017 17:00:00 22,4 10,8 20,1 13,4 14,9 6 4 31 17 SSW 1016,4 16 10 0,0
21.10.2017 16:00:00 24,0 10,6 23,6 13,3 14,9 18 10 43 23 S 1016,5 10 47 0,0
21.10.2017 15:00:00 24,1 13,3 22,7 13,2 14,9 13 7 29 16 - 1017,0 10 56 0,0
21.10.2017 14:00:00 19,0 11,3 20,3 13,2 15,0 5 3 13 7 N 1018,5 10 14 0,0
21.10.2017 13:00:00 18,8 11,8 19,7 13,1 15,0 7 4 11 6 N 1019,2 14 45 0,0
21.10.2017 12:00:00 17,0 10,6 18,5 13,1 15,0 8 4 12 7 N 1020,1 10 44 0,0
21.10.2017 11:00:00 17,0 9,9 13,3 13,2 15,0 2 1 11 6 - 1020,2 10 58 0,0
21.10.2017 10:00:00 12,8 10,3 6,9 13,2 15,0 4 2 9 5 - 1020,8 10 44 0,0
21.10.2017 09:00:00 8,3 7,4 4,3 13,2 15,0 0 0 10 5 N 1021,3 8 0 0,0
21.10.2017 08:00:00 7,1 6,0 3,9 13,3 15,0 5 3 7 4 SSE 1021,0 9 0 0,0
21.10.2017 07:00:00 7,9 6,7 4,3 13,3 15,0 5 3 7 4 SSE 1020,7 9 0 0,0
21.10.2017 06:00:00 8,7 7,1 5,1 13,3 15,0 6 3 10 5 S 1020,1 9 0 0,0
21.10.2017 05:00:00 8,6 7,5 5,7 13,3 15,0 5 3 10 5 SSE 1020,0 10 0 0,0
21.10.2017 04:00:00 9,8 7,7 6,4 13,3 15,0 6 4 9 5 SSE 1020,3 12 0 0,0
21.10.2017 03:00:00 12,3 9,1 9,7 13,3 15,0 4 2 9 5 S 1020,2 10 0 0,0
21.10.2017 02:00:00 12,4 9,2 10,3 13,3 15,0 2 1 8 4 - 1020,2 10 0 0,0
21.10.2017 01:00:00 12,1 9,7 10,1 13,3 15,0 5 3 11 6 - 1020,3 10 0 0,0
21.10.2017 00:00:00 13,1 9,5 10,5 13,3 15,0 0 0 6 3 N 1020,0 10 0 0,0
20.10.2017 23:00:00 13,2 9,6 10,8 13,3 15,0 0 0 7 4 N 1019,8 10 0 0,0
20.10.2017 22:00:00 12,3 9,8 10,6 13,3 15,0 7 4 9 5 SE 1019,7 9 0 0,0
20.10.2017 21:00:00 14,2 10,6 11,4 13,3 15,1 4 2 13 7 E 1019,3 4,5 0 0,0
20.10.2017 20:00:00 13,9 11,6 11,4 13,2 15,0 5 3 9 5 NW 1019,2 10 0 0,0
20.10.2017 19:00:00 15,2 11,4 13,2 13,1 15,0 2 1 9 5 WNW 1018,6 16 19 0,0
20.10.2017 18:00:00 17,0 11,5 17,1 13,0 15,0 0 0 5 3 N 1018,4 18 25 0,0
20.10.2017 17:00:00 16,8 10,4 16,6 13,0 15,1 0 0 8 4 N 1018,7 16 0 0,0
20.10.2017 16:00:00 16,4 10,0 16,7 12,9 15,0 5 3 11 6 NW 1018,7 10 8 0,0
20.10.2017 15:00:00 15,5 8,7 15,0 12,9 15,1 0 0 8 5 N 1018,6 10 0 0,0
20.10.2017 14:00:00 15,0 8,9 16,0 12,9 15,1 4 2 6 3 - 1019,4 10 0 0,0
20.10.2017 13:00:00 14,6 8,8 14,2 12,8 15,0 2 1 5 3 SSW 1019,7 13 0 0,0
20.10.2017 12:00:00 13,2 8,9 14,0 12,9 15,1 0 0 5 3 N 1020,0 10 0 0,0
20.10.2017 11:00:00 12,6 8,5 11,8 12,9 15,1 0 0 4 2 N 1019,5 14 4 0,0
20.10.2017 10:00:00 11,0 8,2 7,8 12,9 15,1 2 1 7 4 ENE 1019,1 11 49 0,0
20.10.2017 09:00:00 7,7 7,3 4,1 13,0 15,1 4 2 6 3 WSW 1018,8 8 18 0,0
20.10.2017 08:00:00 5,7 5,3 1,2 13,0 15,1 5 3 7 4 SSE 1018,5 8 0 0,0
20.10.2017 07:00:00 5,3 4,7 0,7 13,1 15,1 2 1 6 4 SSE 1018,4 2,3 0 0,0
20.10.2017 06:00:00 5,9 5,0 0,5 13,2 15,1 4 2 6 3 E 1017,8 7 0 0,0
20.10.2017 05:00:00 6,1 5,7 1,1 13,2 15,1 5 3 8 4 ESE 1017,6 10 0 0,0
20.10.2017 04:00:00 6,9 6,3 2,7 13,3 15,1 4 2 7 4 - 1017,7 10 0 0,0
20.10.2017 03:00:00 6,0 5,3 1,3 13,3 15,1 2 1 7 4 SE 1017,2 10 0 0,0
20.10.2017 02:00:00 7,1 6,4 1,4 13,4 15,1 0 0 6 3 N 1016,4 10 0 0,0
20.10.2017 01:00:00 7,7 7,1 2,3 13,4 15,1 0 0 5 3 N 1015,7 6 0 0,0
20.10.2017 00:00:00 8,8 7,9 2,9 13,5 15,1 0 0 5 3 N 1015,8 10 0 0,0
19.10.2017 23:00:00 8,2 5,8 3,6 13,5 15,1 3 2 5 3 S 1015,9 11 0 0,0
19.10.2017 22:00:00 9,5 7,4 4,0 13,5 15,1 3 1 6 3 SSE 1015,3 17 0 0,0
19.10.2017 21:00:00 10,2 8,1 5,3 13,5 15,1 4 2 6 3 SE 1014,4 17 0 0,0
19.10.2017 20:00:00 12,2 8,8 5,7 13,5 15,1 3 2 5 3 S 1013,8 18 0 0,0
19.10.2017 19:00:00 14,5 9,7 8,2 13,4 15,1 5 3 7 4 SSW 1012,7 18 0 0,0
19.10.2017 18:00:00 18,5 9,0 14,6 13,3 15,1 7 4 13 7 WNW 1012,0 20 20 0,0
19.10.2017 17:00:00 22,1 8,6 21,7 13,2 15,2 8 5 12 7 NNW 1011,4 18 55 0,0
19.10.2017 16:00:00 22,1 9,6 24,2 13,1 15,1 5 3 11 6 NNW 1011,5 10 52 0,0
19.10.2017 15:00:00 21,5 9,1 25,5 13,0 15,2 8 4 13 7 NNW 1012,0 10 60 0,0
19.10.2017 14:00:00 20,1 9,0 22,3 12,9 15,2 4 2 10 5 - 1012,8 10 58 0,0
19.10.2017 13:00:00 18,3 9,1 15,2 12,9 15,2 5 3 9 5 - 1014,0 10 48 0,0
19.10.2017 12:00:00 13,8 8,6 14,8 13,0 15,2 4 2 6 3 - 1015,3 10 17 0,0
19.10.2017 11:00:00 12,2 9,6 10,8 12,9 15,2 2 1 8 4 SSW 1015,9 13 0 0,0
19.10.2017 10:00:00 10,0 9,0 - - - 0 0 - - N - 10 - -
19.10.2017 09:00:00 7,1 6,5 4,1 13,0 15,2 4 2 7 4 S 1016,3 6 0 0,0
19.10.2017 08:00:00 6,7 6,1 2,0 13,1 15,2 0 0 8 5 N 1016,0 7 0 0,0
19.10.2017 07:00:00 5,6 5,0 2,3 13,2 15,2 10 6 13 7 SSE 1016,1 6 0 0,0
19.10.2017 06:00:00 6,9 6,3 1,5 13,2 15,2 0 0 6 3 N 1015,5 9 0 0,0
19.10.2017 05:00:00 6,5 5,6 2,4 13,3 15,2 3 2 5 3 SE 1015,9 10 0 0,0
19.10.2017 04:00:00 7,2 6,1 3,0 13,3 15,2 0 0 8 5 N 1015,9 6 0 0,0
19.10.2017 03:00:00 7,5 6,0 3,4 13,3 15,2 0 0 5 3 N 1016,2 7 0 0,0
19.10.2017 02:00:00 8,0 6,5 3,4 13,4 15,2 0 0 6 3 N 1016,1 8 0 0,0
19.10.2017 01:00:00 9,2 8,1 4,5 13,4 15,2 2 1 6 3 ESE 1015,8 12 0 0,0
19.10.2017 00:00:00 10,7 8,6 6,3 13,4 15,2 3 1 6 3 SW 1015,7 15 0 0,0
18.10.2017 23:00:00 11,0 9,1 7,7 13,4 15,2 2 1 6 3 ESE 1016,1 16 0 0,0
18.10.2017 22:00:00 10,1 8,4 6,1 13,4 15,3 0 0 6 3 N 1015,9 16 0 0,0
18.10.2017 21:00:00 10,5 8,4 4,9 13,4 15,2 0 0 5 3 N 1015,2 17 0 0,0
18.10.2017 20:00:00 11,7 8,2 5,7 13,4 15,3 0 0 6 3 N 1014,9 12 0 0,0
18.10.2017 19:00:00 13,4 9,4 7,7 13,3 15,3 5 3 7 4 SSW 1014,2 17 0 0,0
18.10.2017 18:00:00 16,8 9,7 12,1 13,2 15,3 4 2 6 4 W 1013,8 10 22 0,0
18.10.2017 17:00:00 20,9 7,8 20,6 13,1 15,2 4 2 10 6 NNE 1013,4 10 60 0,0
18.10.2017 16:00:00 20,5 6,8 22,9 13,0 15,3 4 2 10 5 - 1014,1 10 60 0,0
18.10.2017 15:00:00 18,8 8,4 22,3 12,9 15,3 8 4 11 6 N 1014,7 10 60 0,0
18.10.2017 14:00:00 17,6 10,2 22,0 12,8 15,3 5 3 12 6 N 1015,8 10 60 0,0
18.10.2017 13:00:00 17,1 9,3 19,7 12,8 15,3 4 2 10 6 - 1017,0 10 60 0,0
18.10.2017 12:00:00 15,8 8,8 15,1 12,8 15,3 4 2 7 4 - 1017,8 10 60 0,0
18.10.2017 11:00:00 13,3 9,5 11,2 12,9 15,3 2 1 5 3 E 1018,5 10 60 0,0
18.10.2017 10:00:00 10,1 9,8 2,2 12,9 15,3 0 0 6 4 N 1019,6 9 60 0,0
18.10.2017 09:00:00 4,7 4,3 0,0 13,0 15,3 5 3 8 4 SE 1020,4 6 0 0,0
18.10.2017 08:00:00 4,8 4,5 -0,1 13,0 15,3 2 1 7 4 SE 1020,3 1,9 0 0,0
18.10.2017 07:00:00 5,7 5,4 -0,2 13,1 15,3 0 0 5 3 N 1020,4 0,5 0 0,0
18.10.2017 06:00:00 5,8 5,5 0,2 13,2 15,3 0 0 6 3 N 1020,6 5 0 0,0
18.10.2017 05:00:00 4,7 4,0 0,8 13,3 15,3 4 2 5 3 SE 1020,8 0,7 0 0,0
18.10.2017 04:00:00 4,9 4,0 0,9 13,3 15,3 5 3 7 4 S 1021,2 0,4 0 0,0
18.10.2017 03:00:00 6,8 6,4 1,3 13,4 15,3 0 0 6 3 N 1021,2 5 0 0,0
18.10.2017 02:00:00 6,6 6,0 0,9 13,5 15,3 0 0 5 3 N 1021,4 8 0 0,0
18.10.2017 01:00:00 7,1 6,0 1,3 13,5 15,3 0 0 5 3 N 1021,2 10 0 0,0
18.10.2017 00:00:00 7,4 6,3 2,4 13,5 15,3 4 2 6 4 SSE 1021,3 10 0 0,0
17.10.2017 23:00:00 7,3 5,4 2,6 13,6 15,3 0 0 5 3 N 1021,5 10 0 0,0
17.10.2017 22:00:00 8,6 5,9 3,3 13,6 15,4 0 0 6 3 N 1021,2 10 0 0,0
17.10.2017 21:00:00 9,6 6,9 3,2 13,6 15,4 4 2 5 3 SSE 1020,7 10 0 0,0
17.10.2017 20:00:00 10,7 7,2 4,1 13,6 15,4 0 0 4 2 N 1020,8 10 0 0,0
17.10.2017 19:00:00 12,7 8,8 6,1 13,5 15,4 0 0 5 3 N 1020,2 10 0 0,0
17.10.2017 18:00:00 16,5 7,7 11,4 13,4 15,3 0 0 9 5 N 1019,9 10 23 0,0
17.10.2017 17:00:00 21,0 8,6 21,4 13,3 15,4 0 0 9 5 N 1019,9 10 60 0,0
17.10.2017 16:00:00 20,0 9,8 23,1 13,2 15,4 5 3 12 6 N 1020,6 10 60 0,0
17.10.2017 15:00:00 19,2 11,5 23,1 13,1 15,4 9 5 13 7 N 1021,4 10 60 0,0
17.10.2017 14:00:00 20,1 6,1 22,5 13,1 15,4 4 2 8 5 - 1022,4 10 60 0,0
17.10.2017 13:00:00 18,1 8,9 19,0 13,0 15,4 4 2 6 4 - 1023,9 10 60 0,0
17.10.2017 12:00:00 15,3 9,9 15,2 13,0 15,4 4 2 7 4 - 1025,0 10 60 0,0
17.10.2017 11:00:00 12,7 9,5 11,0 13,1 15,4 0 0 5 3 N 1026,2 10 57 0,0
17.10.2017 10:00:00 9,8 9,2 2,6 13,2 15,4 2 1 4 2 - 1027,1 10 60 0,0
17.10.2017 09:00:00 5,2 4,9 -0,2 13,2 15,4 0 0 4 2 N 1027,7 3,4 5 0,0
17.10.2017 08:00:00 4,8 4,5 -0,3 13,3 15,4 0 0 4 2 N 1027,7 0,6 0 0,0
17.10.2017 07:00:00 4,4 4,0 -0,3 13,4 15,4 4 2 5 3 SSE 1027,7 1,6 0 0,0
17.10.2017 06:00:00 6,1 5,8 0,4 13,4 15,4 0 0 6 4 N 1027,5 0,7 0 0,0
17.10.2017 05:00:00 5,5 5,1 0,4 13,5 15,4 5 3 8 4 SSE 1027,7 6 0 0,0
17.10.2017 04:00:00 7,2 6,8 0,4 13,6 15,4 0 0 8 4 N 1027,7 8 0 0,0
17.10.2017 03:00:00 5,1 4,1 1,6 13,6 15,4 6 4 9 5 SSE 1028,2 0,6 0 0,0
17.10.2017 02:00:00 6,7 6,1 1,7 13,7 15,4 3 1 7 4 SE 1028,4 7 0 0,0
17.10.2017 01:00:00 7,8 6,9 1,9 13,7 15,5 5 3 8 4 SSW 1028,2 8 0 0,0
17.10.2017 00:00:00 8,1 6,7 2,9 13,8 15,4 4 2 6 4 SE 1028,0 10 0 0,0
16.10.2017 23:00:00 8,6 7,1 3,3 13,8 15,5 5 3 8 5 SE 1027,7 14 0 0,0
16.10.2017 22:00:00 8,8 7,4 3,6 13,8 15,5 5 3 8 5 SSE 1027,4 14 0 0,0
16.10.2017 21:00:00 11,0 8,9 4,2 13,8 15,5 3 1 4 2 SSW 1026,9 16 0 0,0
16.10.2017 20:00:00 11,5 9,4 5,2 13,8 15,5 0 0 6 3 N 1026,5 12 0 0,0
16.10.2017 19:00:00 13,4 9,1 7,0 13,7 15,5 3 2 6 4 SSW 1026,0 9 0 0,0
16.10.2017 18:00:00 16,8 10,2 12,3 13,7 15,5 5 3 8 4 W 1025,4 10 25 0,0
16.10.2017 17:00:00 21,2 10,9 21,6 13,5 15,5 4 2 8 5 N 1025,1 10 60 0,0
16.10.2017 16:00:00 20,5 9,7 23,6 13,4 15,5 8 4 11 6 N 1025,4 18 60 0,0
16.10.2017 15:00:00 19,5 11,8 23,7 13,3 15,5 9 5 13 7 N 1026,1 10 60 0,0
16.10.2017 14:00:00 20,6 9,5 24,5 13,2 15,5 5 3 9 5 N 1026,8 10 60 0,0
16.10.2017 13:00:00 19,5 10,8 21,9 13,2 15,5 4 2 8 5 - 1027,6 10 60 0,0
16.10.2017 12:00:00 17,7 8,5 16,9 13,2 15,5 3 1 7 4 SSE 1028,2 13 60 0,0
16.10.2017 11:00:00 14,1 11,1 12,4 13,3 15,5 0 0 5 3 N 1029,0 13 60 0,0
16.10.2017 10:00:00 10,7 10,4 3,4 13,4 15,5 0 0 3 2 N 1029,5 9 60 0,0
16.10.2017 09:00:00 6,0 5,7 0,9 13,4 15,5 0 0 4 2 N 1029,7 4,6 2 0,0
16.10.2017 08:00:00 4,8 4,4 0,2 13,5 15,5 3 2 6 3 SSE 1029,2 0,4 0 0,0
16.10.2017 07:00:00 4,4 3,8 0,4 13,6 15,6 3 1 5 3 S 1029,2 0,3 0 0,0
16.10.2017 06:00:00 5,9 5,5 1,0 13,6 15,5 0 0 5 3 N 1029,0 0,2 0 0,0
16.10.2017 05:00:00 5,2 4,3 1,7 13,6 15,5 4 2 5 3 SSE 1029,2 0,5 0 0,0
16.10.2017 04:00:00 7,0 6,6 2,6 13,7 15,6 4 2 6 3 S 1029,2 0,9 0 0,0
16.10.2017 03:00:00 8,1 7,8 2,5 13,8 15,5 0 0 6 3 N 1029,4 0,4 0 0,0
16.10.2017 02:00:00 7,9 7,1 2,8 13,8 15,5 4 2 6 3 - 1029,4 3,6 0 0,2
16.10.2017 01:00:00 8,5 8,1 3,5 13,8 15,6 0 0 5 3 N 1029,4 5 0 0,0
16.10.2017 00:00:00 9,7 8,9 4,0 13,9 15,6 0 0 8 4 N 1029,1 9 0 0,0
15.10.2017 23:00:00 10,1 9,3 4,4 13,9 15,6 0 0 6 3 N 1029,0 9 0 0,0
15.10.2017 22:00:00 10,7 9,6 5,0 13,9 15,6 0 0 5 3 N 1028,5 8 0 0,0
15.10.2017 21:00:00 11,4 10,0 5,2 13,9 15,6 4 2 4 2 ESE 1028,0 10 0 0,0
15.10.2017 20:00:00 12,7 10,6 6,0 13,9 15,6 2 1 7 4 E 1027,4 14 0 0,0
15.10.2017 19:00:00 13,5 10,7 8,7 13,8 15,6 4 2 7 4 SW 1026,7 10 0 0,0

tt = Température de l'air
td = dewpoint
tt 5cm = Température de l'air 5cm
tt -20cm = Température de l'air -20cm
tt -100cm = Température de l'air -100cm
ff = Vitesse du vent
fx = gusts
dd = Direction du vent
ppp = reduced air pressure
vv = visibility
sd = Ensoleillement
rr = Quantités de précipitations

stations d'obs. à proximité